TimePDT,TemperatureF,Dew PointF,Humidity,Sea Level PressureIn,VisibilityMPH,Wind Direction,Wind SpeedMPH,Gust SpeedMPH,PrecipitationIn,Events,Conditions,WindDirDegrees,DateUTC
12:15 AM,44.6,42.8,93,30.14,10.0,Calm,Calm,-,N/A,,Mostly Cloudy,0,2013-05-18 07:15:00
12:35 AM,46.4,44.6,93,30.15,10.0,SSE,3.5,-,N/A,,Overcast,150,2013-05-18 07:35:00
12:55 AM,46.4,44.6,93,30.14,10.0,Calm,Calm,-,N/A,,Overcast,0,2013-05-18 07:55:00
1:15 AM,46.4,44.6,93,30.14,10.0,Calm,Calm,-,N/A,,Overcast,0,2013-05-18 08:15:00
1:35 AM,46.4,44.6,93,30.14,10.0,Calm,Calm,-,N/A,,Overcast,0,2013-05-18 08:35:00
1:55 AM,46.4,44.6,93,30.14,10.0,Calm,Calm,-,N/A,,Overcast,0,2013-05-18 08:55:00
2:15 AM,46.4,44.6,93,30.14,10.0,Calm,Calm,-,N/A,,Overcast,0,2013-05-18 09:15:00
2:35 AM,46.4,44.6,93,30.14,10.0,Calm,Calm,-,N/A,,Overcast,0,2013-05-18 09:35:00
2:55 AM,46.4,44.6,93,30.14,10.0,West,3.5,-,N/A,,Mostly Cloudy,280,2013-05-18 09:55:00
3:15 AM,46.4,44.6,93,30.14,10.0,Calm,Calm,-,N/A,,Overcast,0,2013-05-18 10:15:00
3:35 AM,46.4,44.6,93,30.14,10.0,Calm,Calm,-,N/A,,Overcast,0,2013-05-18 10:35:00
3:55 AM,46.4,44.6,93,30.14,10.0,SW,3.5,-,N/A,,Overcast,230,2013-05-18 10:55:00
4:15 AM,46.4,44.6,93,30.14,10.0,Calm,Calm,-,N/A,,Overcast,0,2013-05-18 11:15:00
4:35 AM,46.4,44.6,93,30.14,10.0,Calm,Calm,-,N/A,,Overcast,0,2013-05-18 11:35:00
4:55 AM,46.4,46.4,100,30.14,10.0,Calm,Calm,-,N/A,,Overcast,0,2013-05-18 11:55:00
5:15 AM,46.4,44.6,93,30.14,10.0,Calm,Calm,-,N/A,,Overcast,0,2013-05-18 12:15:00
5:35 AM,46.4,44.6,93,30.14,10.0,Calm,Calm,-,N/A,,Overcast,0,2013-05-18 12:35:00
5:55 AM,46.4,44.6,93,30.14,10.0,Calm,Calm,-,N/A,,Overcast,0,2013-05-18 12:55:00
6:15 AM,48.2,46.4,93,30.14,10.0,Calm,Calm,-,N/A,,Overcast,0,2013-05-18 13:15:00
6:35 AM,48.2,46.4,93,30.14,10.0,Calm,Calm,-,0.01,,Overcast,0,2013-05-18 13:35:00
6:55 AM,48.2,46.4,93,30.15,10.0,Calm,Calm,-,0.01,,Overcast,0,2013-05-18 13:55:00
7:15 AM,48.2,46.4,93,30.15,10.0,Calm,Calm,-,N/A,,Overcast,0,2013-05-18 14:15:00
7:35 AM,48.2,48.2,100,30.15,10.0,Calm,Calm,-,N/A,,Overcast,0,2013-05-18 14:35:00
7:55 AM,50.0,48.2,94,30.16,10.0,Calm,Calm,-,N/A,,Overcast,0,2013-05-18 14:55:00
8:15 AM,51.8,48.2,88,30.17,10.0,Calm,Calm,-,N/A,,Overcast,0,2013-05-18 15:15:00
8:35 AM,51.8,48.2,88,30.17,10.0,Calm,Calm,-,N/A,,Overcast,0,2013-05-18 15:35:00
8:55 AM,51.8,48.2,88,30.17,10.0,Calm,Calm,-,N/A,,Overcast,0,2013-05-18 15:55:00
9:15 AM,53.6,48.2,82,30.17,10.0,Calm,Calm,-,N/A,,Overcast,0,2013-05-18 16:15:00
9:35 AM,55.4,48.2,77,30.17,10.0,Calm,Calm,-,N/A,,Overcast,0,2013-05-18 16:35:00
9:55 AM,57.2,50.0,77,30.17,10.0,South,5.8,-,N/A,,Overcast,180,2013-05-18 16:55:00
10:15 AM,57.2,50.0,77,30.17,10.0,SSE,5.8,-,N/A,,Overcast,150,2013-05-18 17:15:00
10:35 AM,57.2,48.2,72,30.17,10.0,Calm,Calm,-,N/A,,Overcast,0,2013-05-18 17:35:00
10:55 AM,55.4,48.2,77,30.17,10.0,WNW,5.8,-,N/A,,Mostly Cloudy,290,2013-05-18 17:55:00
11:15 AM,55.4,50.0,82,30.17,10.0,West,4.6,-,N/A,,Overcast,260,2013-05-18 18:15:00
11:35 AM,57.2,50.0,77,30.17,10.0,West,3.5,-,N/A,,Overcast,280,2013-05-18 18:35:00
12:15 PM,57.2,48.2,72,30.19,10.0,NW,4.6,-,N/A,,Overcast,320,2013-05-18 19:15:00
12:35 PM,55.4,51.8,88,30.19,10.0,West,5.8,-,N/A,,Overcast,270,2013-05-18 19:35:00
12:55 PM,55.4,50.0,82,30.19,10.0,NW,3.5,-,N/A,,Overcast,310,2013-05-18 19:55:00
1:15 PM,57.2,48.2,72,30.20,10.0,Calm,Calm,-,N/A,,Overcast,0,2013-05-18 20:15:00
1:35 PM,57.2,48.2,72,30.20,10.0,Calm,Calm,-,N/A,,Overcast,0,2013-05-18 20:35:00
1:55 PM,59.0,48.2,67,30.20,10.0,South,4.6,-,N/A,,Overcast,180,2013-05-18 20:55:00
2:15 PM,60.8,48.2,63,30.20,10.0,SSE,5.8,-,N/A,,Overcast,160,2013-05-18 21:15:00
2:35 PM,60.8,48.2,63,30.20,10.0,SSE,6.9,-,N/A,,Overcast,150,2013-05-18 21:35:00
2:55 PM,60.8,48.2,63,30.21,10.0,South,4.6,-,N/A,,Overcast,170,2013-05-18 21:55:00
3:15 PM,60.8,48.2,63,30.21,10.0,SSE,4.6,-,N/A,,Overcast,150,2013-05-18 22:15:00
3:35 PM,59.0,48.2,67,30.21,10.0,SSW,5.8,-,N/A,,Overcast,210,2013-05-18 22:35:00
3:55 PM,60.8,50.0,68,30.22,10.0,SSW,4.6,-,N/A,,Overcast,200,2013-05-18 22:55:00
4:15 PM,60.8,50.0,68,30.22,10.0,SW,8.1,-,N/A,,Overcast,230,2013-05-18 23:15:00
4:35 PM,60.8,50.0,68,30.22,10.0,SW,5.8,-,N/A,,Overcast,230,2013-05-18 23:35:00
4:55 PM,64.4,50.0,59,30.22,10.0,South,6.9,-,N/A,,Overcast,180,2013-05-18 23:55:00
5:15 PM,60.8,50.0,68,30.23,10.0,SW,10.4,-,N/A,,Overcast,220,2013-05-19 00:15:00
5:35 PM,60.8,50.0,68,30.23,10.0,SSW,8.1,-,N/A,,Overcast,200,2013-05-19 00:35:00
5:55 PM,62.6,50.0,63,30.23,10.0,South,8.1,-,N/A,,Overcast,180,2013-05-19 00:55:00
6:15 PM,60.8,50.0,68,30.23,10.0,SSW,10.4,-,N/A,,Overcast,200,2013-05-19 01:15:00
6:35 PM,60.8,50.0,68,30.23,10.0,SSW,9.2,-,N/A,,Mostly Cloudy,200,2013-05-19 01:35:00
6:55 PM,62.6,50.0,63,30.23,10.0,South,8.1,-,N/A,,Mostly Cloudy,190,2013-05-19 01:55:00
7:15 PM,60.8,48.2,63,30.24,10.0,SW,8.1,-,N/A,,Mostly Cloudy,220,2013-05-19 02:15:00
7:35 PM,59.0,50.0,72,30.24,10.0,SSW,6.9,-,N/A,,Overcast,200,2013-05-19 02:35:00
7:55 PM,57.2,50.0,77,30.25,10.0,SSW,6.9,-,N/A,,Overcast,210,2013-05-19 02:55:00
8:15 PM,57.2,50.0,77,30.26,10.0,SSW,6.9,-,N/A,,Overcast,200,2013-05-19 03:15:00
8:35 PM,55.4,51.8,88,30.26,10.0,South,5.8,-,N/A,,Overcast,180,2013-05-19 03:35:00
9:15 PM,53.6,51.8,94,30.28,10.0,South,5.8,-,N/A,,Overcast,170,2013-05-19 04:15:00
9:35 PM,51.8,50.0,94,30.28,10.0,South,3.5,-,N/A,,Mostly Cloudy,190,2013-05-19 04:35:00
9:55 PM,51.8,50.0,94,30.29,10.0,SE,4.6,-,N/A,,Overcast,140,2013-05-19 04:55:00
10:15 PM,51.8,50.0,94,30.29,10.0,SSE,5.8,-,N/A,,Overcast,150,2013-05-19 05:15:00
10:35 PM,53.6,50.0,88,30.29,10.0,Calm,Calm,-,N/A,,Mostly Cloudy,0,2013-05-19 05:35:00
10:55 PM,51.8,48.2,88,30.29,10.0,SSE,4.6,-,N/A,,Partly Cloudy,160,2013-05-19 05:55:00
11:15 PM,51.8,48.2,88,30.30,10.0,South,3.5,-,N/A,,Mostly Cloudy,170,2013-05-19 06:15:00
11:35 PM,51.8,50.0,94,30.30,10.0,Calm,Calm,-,N/A,,Overcast,0,2013-05-19 06:35:00
11:55 PM,51.8,50.0,94,30.30,10.0,SE,5.8,-,N/A,,Overcast,130,2013-05-19 06:55:00